Temp
19 19 19 19 19 19 19 19 20 20 20 20 20 20 20 20 19 20 20 20 19 18 18 18 18 17 17 17 17 17 18 18 18 18 18 17 17 17 16 16 16 15 15 15 15 15 15 14 14 14 14 14 14 14 14 14 14 13 13 13 13 13 14 13 12 12 12 13 12 12 12 12 12 12 12 12 11 11 11 11 11 11 11 11 11
19 19 19 19 19 19 19 19 19 20 20 20 20 20 20 19 19 20 20 20 19 18 17 17 17 17 16 16 16 17 17 17 17 17 17 17 17 16 16 16 16 15 15 15 14 14 14 14 14 14 14 14 14 14 14 14 13 13 13 13 13 13 13 13 13 12 12 12 12 12 12 12 12 11 11 12 11 11 11 11 11 11 11 11 11
19 19 19 19 19 19 19 19 19 20 20 20 20 20 19 19 19 19 20 19 18 17 17 17 17 17 16 15 16 16 16 16 16 16 17 17 16 16 16 16 15 15 15 15 14 14 14 14 14 14 14 14 14 14 14 13 13 13 13 13 13 13 13 13 13 13 13 12 12 12 11 11 11 11 11 11 11 11 11 11 11 10 11 11 11
18 19 19 19 19 19 19 19 19 19 19 19 19 19 19 19 19 19 19 19 17 17 17 16 15 16 15 14 16 16 15 16 16 16 17 17 16 16 16 15 15 15 15 15 14 14 14 14 14 14 14 14 13 13 13 13 13 13 13 13 13 13 13 13 13 13 13 12 11 11 11 11 11 11 11 11 11 11 11 11 11 11 10 10 10
18 18 19 19 19 19 18 19 19 19 19 19 19 19 19 19 19 19 18 18 16 16 16 15 15 15 15 15 16 15 15 16 16 16 16 16 16 16 15 15 15 15 15 14 14 14 14 14 14 13 13 13 13 13 13 13 13 13 13 13 13 13 13 13 13 13 13 12 11 10 10 10 10 10 10 10 10 11 11 11 11 11 10 10 10
18 18 19 19 18 18 18 18 19 19 19 18 19 18 18 18 18 18 17 17 16 16 16 15 15 15 15 15 15 15 15 16 16 16 16 16 16 16 15 15 15 15 14 14 14 14 14 14 13 13 13 13 13 13 12 13 13 13 13 13 13 13 13 13 13 13 13 12 11 10 10 10 10 10 10 10 10 10 10 11 11 10 10 10 10
18 18 19 18 18 18 18 18 19 19 18 18 18 18 18 18 17 17 17 16 16 16 16 15 15 15 14 14 15 15 15 15 16 16 15 15 16 15 15 15 15 14 14 14 14 14 14 13 13 13 13 13 13 12 12 12 12 12 12 12 13 13 13 13 13 13 12 11 11 10 10 10 10 10 9 9 10 10 10 10 10 10 10 9 9
18 18 18 18 18 18 18 18 18 18 18 18 18 18 18 17 17 17 16 16 16 16 16 15 15 15 14 14 14 14 15 15 15 15 15 15 15 15 15 15 14 14 14 14 13 13 13 13 13 13 13 12 12 12 12 12 12 12 12 12 13 13 13 13 13 12 12 11 10 10 10 9 9 9 9 9 9 9 9 9 9 9 9 9 9
18 18 18 18 18 18 18 18 18 17 18 18 18 18 18 17 16 16 16 16 16 16 15 15 15 15 14 14 14 15 15 15 15 15 15 15 15 15 15 15 14 14 13 13 13 13 13 13 13 13 12 12 12 12 12 12 12 12 12 12 12 13 13 13 12 12 11 10 10 9 9 9 9 9 9 9 8 8 8 9 9 9 9 9 9
18 18 18 17 18 18 18 17 17 17 17 17 17 17 17 16 16 16 15 16 16 16 15 15 15 15 14 14 14 15 15 15 15 15 15 15 15 15 15 14 14 14 13 13 13 12 13 12 12 12 12 12 11 11 11 11 11 12 12 12 12 12 12 12 11 11 11 10 9 9 9 8 8 8 8 8 8 8 9 9 9 9 9 9 9
18 18 18 17 17 17 17 17 17 17 17 17 17 17 16 16 16 16 15 15 16 16 15 15 15 15 15 15 15 15 15 14 14 14 15 15 15 15 14 14 14 14 13 13 13 12 12 12 12 12 11 11 11 11 11 11 11 11 11 11 12 12 12 12 11 11 10 9 9 9 9 8 7 7 7 8 8 8 9 9 8 8 8 8 8
18 18 18 17 17 17 17 17 17 17 16 16 16 17 16 16 16 15 15 15 15 15 15 15 15 15 15 15 15 15 15 14 14 14 15 15 15 15 14 14 14 13 13 13 13 12 12 11 11 11 10 10 10 11 11 11 10 10 11 11 11 11 11 11 11 11 10 9 9 9 8 8 7 7 8 8 8 8 9 8 8 8 8 8 7
18 17 17 17 17 17 17 17 16 16 16 16 16 16 16 16 16 15 15 15 15 15 15 15 15 15 15 14 14 15 15 14 14 14 15 15 15 15 14 14 14 13 13 13 13 12 12 11 10 10 10 10 10 10 10 10 10 10 10 10 11 11 10 10 10 10 10 10 9 8 8 7 7 7 7 8 8 8 8 8 8 8 8 8 8
17 17 17 17 16 16 16 17 16 16 16 16 16 16 15 15 15 15 15 15 15 15 15 14 15 15 15 15 15 15 15 15 14 14 14 15 15 15 14 14 14 14 13 13 13 12 12 11 10 10 9 9 10 10 10 10 10 10 10 10 10 10 10 10 10 10 10 9 9 8 8 8 7 7 7 8 8 8 8 8 9 8 8 8 8
17 17 17 16 16 16 16 16 16 16 15 15 15 15 15 15 15 15 15 15 15 15 15 14 14 14 15 15 15 15 15 15 14 14 15 15 15 15 14 14 14 13 13 13 13 12 12 11 11 10 10 9 9 9 10 10 10 10 10 10 9 9 9 9 10 10 9 9 9 9 8 8 8 8 8 8 8 8 8 8 8 8 8 8 9
17 17 16 16 16 16 16 16 16 15 15 15 15 15 15 15 15 15 15 15 15 15 15 14 14 14 14 15 15 15 15 15 15 15 15 15 15 15 14 14 14 13 13 13 13 12 12 11 11 10 10 10 10 9 9 9 10 10 10 10 10 9 9 10 9 10 9 9 9 9 9 9 9 8 8 8 8 8 8 9 9 9 9 9 9
17 17 16 16 16 16 16 16 15 15 15 15 15 15 15 15 15 15 15 15 15 15 14 14 14 14 15 15 15 15 15 15 15 15 15 15 15 15 14 14 13 13 13 13 12 12 11 12 11 11 10 10 10 10 10 10 10 10 10 10 10 10 9 9 9 9 9 9 9 9 9 9 9 9 9 9 9 9 9 9 9 9 9 8 8
17 17 16 16 16 16 16 15 15 15 15 15 15 15 15 15 15 15 14 15 14 14 14 14 14 14 15 15 15 15 15 15 15 15 15 15 15 14 14 14 13 13 13 12 12 12 12 12 12 11 11 11 10 10 10 10 10 10 10 10 10 10 10 9 9 9 9 9 9 9 9 9 9 9 9 9 9 9 9 9 9 9 8 8 8
17 17 17 16 16 16 16 15 15 15 15 15 15 15 15 15 14 14 14 14 14 14 14 14 14 14 15 15 15 15 15 15 15 15 15 15 15 14 14 14 13 13 13 12 11 11 11 11 11 11 11 11 10 10 10 11 11 10 10 10 10 10 10 10 9 9 9 9 9 10 10 9 9 9 9 9 9 9 9 9 9 9 9 8 8
17 17 17 17 16 16 16 16 15 15 15 15 15 15 15 15 14 14 14 14 14 14 14 14 14 14 14 15 15 15 15 15 15 15 15 14 14 14 14 14 13 12 12 12 11 11 11 11 11 11 11 10 10 10 10 11 11 11 10 10 10 10 10 10 10 10 10 10 10 10 10 10 9 9 9 9 9 9 9 9 9 9 9 9 9
17 18 17 17 17 16 16 16 16 16 16 15 15 15 15 15 15 14 14 14 14 14 14 14 14 14 14 15 15 15 15 15 15 14 14 14 14 14 14 14 13 12 12 11 11 11 11 11 11 11 11 10 10 10 10 11 11 11 11 10 11 11 10 10 10 10 10 11 11 11 10 10 10 10 9 9 10 9 9 10 10 9 9 9 9
17 17 17 17 16 16 16 16 16 16 16 15 15 15 15 15 15 15 14 14 14 14 14 13 13 13 14 14 14 14 14 14 14 14 14 13 14 14 14 13 13 13 12 11 11 11 11 11 11 11 11 11 10 10 10 11 11 11 11 10 11 11 11 10 10 11 11 11 11 11 10 10 10 10 10 10 10 10 10 10 10 10 10 10 10
17 17 17 17 16 17 16 16 16 16 16 16 16 16 15 15 15 15 14 14 14 14 13 13 13 13 12 12 12 12 12 13 13 13 13 13 13 13 14 13 13 13 13 12 12 12 11 11 11 11 11 11 11 10 10 10 10 10 10 10 10 11 11 11 11 11 11 11 11 11 11 10 10 10 10 10 10 10 10 10 10 10 10 10 10
16 16 17 16 16 17 17 16 16 16 16 16 16 16 16 16 15 15 14 14 14 13 13 13 13 12 11 11 11 11 11 11 12 12 12 12 12 12 13 12 12 12 13 13 12 12 12 11 11 11 11 11 11 11 10 10 10 10 10 10 10 11 11 11 11 11 11 11 11 11 11 11 11 11 10 10 10 10 10 10 10 10 10 10 11
16 16 16 16 16 17 17 17 17 17 16 16 16 16 16 15 15 15 14 14 14 13 13 13 12 11 11 10 10 10 10 11 12 12 12 12 12 11 12 12 12 12 12 13 13 12 12 12 11 11 10 10 10 10 10 9 9 10 10 11 11 11 11 11 11 11 11 11 11 11 11 11 11 10 10 10 10 10 10 10 10 10 11 11 11
16 16 15 16 16 16 16 16 16 16 16 16 16 16 16 15 14 14 14 14 13 13 12 12 12 10 10 9 9 9 10 11 11 11 11 11 11 11 11 11 11 11 12 12 12 12 12 11 11 10 10 10 10 10 10 9 10 10 10 11 11 11 11 11 11 11 11 11 11 10 10 10 10 10 10 10 10 10 10 10 10 10 11 11 10
16 15 15 15 16 16 16 15 15 15 14 14 14 14 14 14 14 14 13 13 12 12 12 12 11 10 9 9 9 9 9 9 9 9 10 10 10 11 11 11 11 11 11 12 11 11 11 11 10 10 10 10 10 10 10 10 10 10 11 10 10 11 11 11 11 11 11 11 11 10 10 10 10 10 10 10 10 10 10 10 10 10 10 10 10
16 15 15 15 16 16 15 15 15 14 14 14 14 13 13 13 13 13 14 13 13 12 12 12 11 10 10 9 9 8 7 8 9 9 10 10 10 10 11 11 11 11 11 11 11 10 10 10 10 10 10 10 10 10 10 10 11 11 11 11 10 10 11 11 11 11 11 11 11 10 10 10 10 10 10 10 10 10 10 10 10 10 10 10 10
15 15 15 15 15 15 15 15 15 15 14 14 13 13 13 13 13 13 13 14 14 13 13 12 12 11 11 10 9 8 8 9 10 10 10 10 10 10 10 10 10 10 11 11 10 9 9 10 10 10 10 10 10 10 10 10 11 11 11 11 11 11 11 11 11 11 11 10 10 10 10 10 10 10 10 10 10 10 10 10 10 10 10 10 9
14 14 14 14 14 14 14 14 14 14 13 13 13 12 12 12 13 13 13 13 13 14 13 13 13 12 11 10 10 10 11 10 9 9 9 9 10 10 10 10 10 10 10 9 9 9 9 9 10 10 9 10 10 10 10 11 11 11 11 11 11 11 10 11 11 11 10 10 10 10 10 10 10 10 10 10 10 10 10 10 9 9 9 9 9
13 12 13 13 12 13 12 12 12 12 12 12 12 11 11 11 12 12 12 12 12 13 13 13 12 12 11 11 10 11 11 9 8 9 9 9 9 10 10 10 9 9 9 9 9 9 9 9 9 9 9 9 10 10 11 11 11 11 11 11 11 11 10 10 11 10 10 10 10 10 10 9 9 9 9 9 9 10 9 9 9 9 9 9 9
13 13 12 12 12 13 13 13 12 12 12 11 11 11 11 10 10 11 11 12 12 12 12 12 11 11 11 12 11 10 9 8 8 8 8 9 9 9 9 9 9 8 8 8 8 8 8 9 9 9 9 9 10 10 10 11 11 11 10 11 11 11 10 10 10 10 10 10 10 10 9 9 9 9 9 9 9 9 9 9 9 9 9 9 9
13 13 13 13 13 13 13 12 12 12 11 11 11 11 11 10 9 8 9 10 10 11 11 11 11 11 11 11 11 10 8 8 8 8 8 8 8 8 8 8 8 8 8 8 8 8 8 9 9 10 10 10 10 10 10 11 11 11 11 10 10 10 10 10 10 10 10 10 10 9 9 9 9 9 9 9 9 9 9 9 9 9 9 9 9
13 12 12 12 12 12 12 12 11 11 11 10 10 10 10 10 9 8 7 7 8 8 8 9 10 10 10 10 9 9 8 7 7 8 8 8 8 8 8 7 7 7 8 8 9 9 9 9 9 9 10 10 10 10 10 11 11 11 11 10 10 10 10 10 10 10 10 10 9 9 9 9 9 9 9 9 9 9 9 8 8 8 8 8 8
12 12 11 11 11 11 11 11 10 10 10 9 9 9 9 9 8 8 7 6 6 6 6 7 8 9 9 9 8 8 7 7 8 8 7 7 7 7 7 7 7 8 8 9 9 9 9 9 9 9 10 10 10 11 11 11 11 11 11 10 10 10 10 10 10 10 9 9 9 9 9 9 9 9 9 9 9 8 8 8 8 8 8 8 8
10 10 10 10 10 10 10 9 9 9 9 8 8 8 8 7 7 7 6 6 6 5 5 6 7 7 8 7 7 7 7 7 7 8 8 7 7 7 8 8 8 9 9 9 9 9 9 9 9 10 10 11 11 11 11 11 11 11 10 10 10 10 10 10 9 9 9 9 9 9 9 9 9 8 8 8 8 8 7 8 8 7 7 7 7
9 8 8 8 9 9 8 8 8 8 8 8 8 8 7 7 7 6 6 6 5 5 5 5 6 6 6 6 6 6 7 7 7 8 8 8 8 8 8 8 9 9 9 9 9 9 9 9 10 11 11 11 11 11 11 11 11 10 10 10 10 10 9 9 9 9 9 9 9 8 8 8 8 8 8 8 8 7 7 7 7 7 7 6 6
8 8 8 8 8 8 8 8 7 7 7 7 7 7 7 6 6 6 5 5 5 5 5 5 5 5 5 5 6 6 6 7 7 7 8 8 8 8 8 8 8 9 9 9 9 9 9 10 10 11 11 11 11 11 11 11 10 10 10 10 9 9 9 9 9 8 8 8 8 8 8 7 7 7 7 7 7 6 6 6 6 6 6 5 5
8 8 7 7 8 7 7 7 7 7 7 7 7 7 6 6 5 5 5 4 4 5 5 5 5 5 5 5 6 6 6 7 7 7 7 7 7 8 8 8 8 8 8 9 9 9 9 9 10 10 10 11 11 11 10 10 10 10 9 9 9 8 8 8 8 8 8 7 7 7 7 7 6 6 7 6 6 5 5 5 5 4 4 4 3
7 7 7 7 7 7 7 7 7 7 7 6 6 6 6 5 5 4 4 4 4 4 4 4 5 5 5 6 6 6 7 7 7 7 7 7 7 7 8 8 8 8 8 9 9 8 8 9 10 10 10 10 10 10 10 10 9 9 9 9 9 8 8 8 8 7 7 7 7 7 6 6 6 6 6 5 5 4 4 4 3 3 3 2 2
7 7 7 7 7 7 7 6 6 6 6 6 6 6 5 5 4 4 4 4 4 4 4 4 4 5 6 6 6 7 7 7 6 7 7 7 7 8 8 8 8 8 8 8 8 8 9 10 10 10 10 10 9 9 9 9 9 8 8 8 8 8 7 7 7 7 6 6 6 6 6 5 5 5 4 4 3 3 3 3 2 2 2 1 1
7 7 7 7 7 7 6 6 6 6 6 6 6 6 5 5 4 4 4 4 4 4 4 3 4 5 6 6 6 7 7 6 6 7 7 7 8 8 8 8 8 8 8 8 8 9 10 10 9 9 9 9 9 8 8 8 8 8 8 7 7 7 7 6 6 6 6 6 5 5 4 4 4 4 3 3 3 2 2 2 1 1 1 0 -0
7 7 6 6 6 6 6 6 6 6 6 6 6 5 5 5 4 4 4 4 4 4 4 4 5 5 6 6 6 6 6 6 7 7 7 8 8 8 7 7 7 7 8 8 8 9 9 9 9 9 8 8 8 8 8 7 7 7 7 7 7 6 6 5 5 5 5 4 4 4 3 3 3 3 2 2 2 1 1 1 0 -0 -1 -1 -1
7 6 6 6 6 6 6 6 6 6 6 6 5 5 5 5 4 4 4 4 3 4 4 5 5 5 5 5 6 6 6 7 7 7 7 7 7 6 6 5 6 7 7 8 8 8 9 9 8 8 8 8 7 7 7 6 6 6 6 6 6 6 5 5 4 4 3 3 3 3 2 2 2 2 1 1 1 0 -0 -1 -1 -1 -2 -2 -2
6 6 6 6 6 6 6 6 6 6 6 5 5 5 5 4 4 4 4 4 4 4 5 5 5 5 5 5 6 6 6 6 6 6 6 6 5 5 5 5 6 7 7 8 8 8 8 8 8 8 7 7 6 6 6 6 5 5 5 5 5 5 4 3 3 2 2 2 2 2 2 2 1 1 0 0 -0 -1 -1 -2 -2 -3 -3 -3 -3
6 6 6 6 6 6 6 6 6 6 6 5 5 5 4 4 4 4 4 4 5 5 5 6 6 5 5 5 6 6 6 6 6 6 5 5 5 5 5 6 7 7 7 7 8 8 8 8 7 7 6 6 5 5 5 5 5 5 4 4 4 3 3 2 2 2 2 2 2 1 1 1 1 -0 -1 -1 -1 -2 -2 -3 -3 -3 -4 -4 -4
6 6 6 6 6 6 6 6 6 6 6 5 5 5 5 4 4 4 4 5 5 5 5 6 6 5 5 5 6 6 6 6 5 5 4 4 5 5 6 6 7 7 7 7 7 7 7 6 6 6 5 5 5 5 4 4 4 4 3 3 2 2 2 1 1 1 1 1 1 1 0 0 -0 -1 -1 -1 -2 -2 -3 -3 -4 -4 -5 -5 -5
6 6 6 6 6 6 6 6 6 6 6 6 5 5 5 4 4 5 5 5 5 5 5 5 5 5 5 5 5 6 6 5 5 4 5 5 5 6 6 6 7 7 7 6 6 5 5 5 5 5 5 4 4 4 4 3 3 3 2 2 1 1 1 1 1 1 0 0 0 -0 -0 -0 -1 -1 -2 -2 -3 -3 -4 -4 -5 -5 -5 -6 -6
7 6 6 6 6 6 6 7 6 6 6 6 6 6 5 5 5 5 5 5 5 5 5 5 5 5 5 5 5 6 5 5 5 5 5 5 6 6 6 6 6 6 5 5 4 4 4 4 4 4 4 4 3 3 3 2 2 2 2 1 0 0 0 0 0 -0 -0 -0 -0 -1 -1 -1 -1 -2 -3 -4 -4 -4 -4 -5 -5 -6 -6 -6 -6
7 7 7 7 7 7 7 7 7 6 6 6 6 6 6 6 6 6 5 5 5 5 5 5 5 5 5 5 5 5 5 5 5 5 5 5 5 5 5 5 5 4 4 4 4 3 3 3 3 3 3 2 2 2 2 2 1 1 0 -0 -1 -1 -0 -0 -0 -1 -1 -1 -1 -1 -1 -2 -2 -3 -4 -5 -5 -5 -5 -5 -6 -6 -7 -7 -7
7 7 7 7 7 7 7 7 7 7 7 7 7 7 6 6 6 6 5 5 5 5 5 5 4 4 4 4 4 4 4 4 4 4 4 4 4 4 4 4 4 4 4 3 3 3 3 2 2 2 2 2 1 1 1 1 0 -1 -1 -1 -1 -1 -1 -1 -1 -1 -1 -1 -2 -2 -2 -3 -3 -4 -5 -5 -6 -6 -6 -6 -7 -7 -7 -7 -8
Height
739 741 744 746 748 750 752 755 758 760 762 764 765 767 769 770 771 772 773 773 773 773 774 777 779 781 783 785 787 789 790 790 791 792 794 796 798 800 802 804 806 809 811 814 815 816 816 816 816 816 816 817 818 819 820 821 822 822 822 822 823 824 826 826 826 827 828 828 828 828 828 828 828 828 828 828 827 827 826 826 826 826 825 824 824
737 740 743 745 747 749 751 754 757 759 761 763 764 766 768 769 770 771 771 771 771 772 774 777 779 780 782 785 788 791 792 793 792 792 793 795 797 799 801 804 806 808 811 813 814 815 815 815 815 815 816 817 818 819 820 821 822 822 822 822 823 825 826 826 826 826 827 828 828 828 828 828 828 828 828 828 828 827 827 826 826 826 826 825 824
736 739 742 745 747 749 751 753 756 758 759 761 763 765 767 768 769 770 770 770 770 772 775 776 777 779 781 785 789 791 792 794 795 795 795 795 797 799 801 803 806 808 810 812 814 814 814 815 815 815 816 817 818 819 820 821 822 822 822 822 823 824 826 826 826 826 827 828 828 828 828 828 827 828 828 828 828 827 827 827 826 826 826 825 824
735 738 741 744 746 748 750 752 754 756 758 760 762 764 766 767 768 769 769 769 770 773 775 775 778 781 782 785 788 790 793 795 796 796 796 796 797 799 801 804 806 808 810 811 813 813 813 814 814 815 816 817 818 819 820 822 822 822 822 822 823 825 825 826 826 826 826 827 828 828 828 828 827 827 828 827 827 827 827 826 826 826 825 825 824
734 737 740 743 745 747 748 751 753 755 756 758 761 763 765 766 767 767 768 769 770 773 774 775 779 782 783 784 786 789 793 794 794 795 796 796 798 800 802 804 806 808 809 811 812 813 813 814 814 815 816 817 818 819 821 822 822 822 822 822 824 825 825 826 826 826 826 827 828 828 828 828 827 827 827 827 827 827 826 826 826 825 825 824 823
733 736 739 741 743 745 747 749 752 753 755 757 760 762 764 765 766 766 767 769 770 772 772 774 777 780 781 782 783 788 792 793 793 794 795 796 798 800 802 804 806 807 809 810 812 813 813 814 814 814 815 817 818 820 821 822 822 822 821 822 823 824 825 825 826 826 826 827 828 828 828 828 828 827 827 827 827 826 826 826 825 825 824 823 823
732 735 737 740 742 744 746 748 750 752 754 756 759 761 762 763 765 766 767 769 770 771 772 774 776 778 780 782 784 787 789 791 792 793 795 797 798 800 802 803 805 807 809 810 812 813 813 814 814 814 815 817 819 820 821 822 821 821 821 822 823 824 824 825 825 826 826 827 828 828 828 828 828 828 827 827 827 827 826 826 825 824 824 823 823
731 733 736 738 741 743 745 747 749 751 753 756 758 760 761 762 764 765 767 769 770 771 772 774 776 779 781 783 786 788 787 788 790 793 796 799 799 799 801 802 804 807 809 811 812 813 813 814 814 814 815 817 819 820 821 821 821 820 820 821 822 823 824 825 825 825 826 826 827 828 828 828 828 828 828 827 827 827 827 827 826 825 824 823 823
729 732 734 737 739 742 745 747 748 750 753 756 758 759 761 762 763 765 767 769 770 771 773 774 776 779 781 783 786 787 787 787 790 793 797 799 799 799 800 802 804 807 809 811 812 813 813 813 813 814 815 817 819 820 821 821 820 819 820 821 822 822 823 824 825 825 826 826 827 827 827 828 828 828 828 827 827 828 827 827 826 825 823 823 823
728 730 733 736 739 741 743 746 747 750 753 755 757 759 761 762 764 765 767 769 770 772 773 775 776 779 781 783 785 786 787 788 791 794 798 800 799 799 800 802 804 806 808 810 812 812 813 812 812 813 814 816 818 819 819 819 818 818 819 820 821 822 823 824 824 825 825 826 827 827 827 828 828 828 828 827 827 827 827 826 825 824 823 823 823
727 729 732 736 738 740 742 744 746 750 752 754 756 759 761 762 764 765 767 768 770 772 774 775 777 779 780 782 784 786 787 789 791 795 799 800 799 799 800 802 804 806 808 809 811 812 812 812 812 813 814 816 817 817 818 817 817 817 818 819 821 821 822 823 824 824 825 825 826 826 827 828 828 827 827 827 827 826 826 825 825 824 824 823 823
727 730 732 736 738 739 741 743 746 750 752 754 756 759 761 763 764 765 767 768 770 772 773 775 777 779 780 781 783 785 786 788 791 795 798 799 798 798 799 801 803 805 807 809 810 811 812 813 814 814 815 816 816 816 816 816 816 817 818 819 820 821 822 823 823 824 824 824 825 826 826 827 827 827 826 826 826 826 826 825 825 824 824 824 823
728 730 733 736 738 739 741 744 747 750 752 754 757 759 761 763 764 765 767 769 771 772 774 776 777 779 781 782 783 785 786 788 791 794 796 797 797 797 799 801 803 805 807 808 810 811 813 814 814 815 816 817 816 816 815 815 816 817 818 819 820 821 822 823 823 824 824 824 824 825 826 826 826 826 826 826 826 825 825 825 824 824 824 823 823
729 731 734 737 738 740 742 745 748 750 752 755 757 759 761 763 764 766 768 770 771 773 774 776 777 779 781 782 784 785 787 790 792 794 796 796 797 798 799 801 803 805 807 808 810 812 813 814 814 815 816 817 817 816 816 816 817 817 818 819 820 821 822 823 824 824 824 824 824 825 826 826 826 825 825 825 825 825 825 824 824 824 823 823 822
729 731 734 736 738 740 742 745 748 751 753 755 757 759 761 762 765 767 768 770 772 773 775 776 777 779 780 782 784 786 788 790 792 794 795 796 797 798 799 801 803 805 807 808 810 811 813 814 814 815 816 817 817 817 817 818 818 818 819 820 821 822 823 824 824 824 825 825 825 825 825 826 826 825 825 825 825 825 825 824 824 824 823 822 822
729 731 733 735 737 739 742 745 748 750 753 755 757 759 760 762 765 767 768 770 772 773 775 776 777 778 780 782 784 786 788 790 792 793 795 796 797 798 799 801 803 805 807 808 810 811 812 813 814 815 816 817 817 818 818 819 819 819 820 820 821 822 823 824 825 825 825 825 825 825 826 826 826 826 826 825 825 825 825 825 824 824 823 822 821
729 731 732 734 736 738 741 744 747 750 753 755 757 758 760 762 764 766 768 770 771 773 774 775 776 778 779 781 783 785 787 789 791 793 795 796 797 798 799 801 803 804 806 808 810 811 812 813 814 815 816 816 817 818 818 819 820 820 821 821 822 823 823 824 825 825 825 825 825 825 826 826 826 826 826 826 826 826 825 825 824 824 823 822 821
728 730 732 733 735 737 740 743 746 749 752 754 756 758 759 762 764 766 767 769 770 772 774 775 777 778 779 781 783 785 786 788 791 793 794 795 797 798 799 800 801 804 806 808 810 811 812 813 814 814 815 816 817 817 818 819 820 820 821 822 822 823 823 824 824 825 825 825 825 825 826 826 826 826 826 826 826 826 825 825 824 824 824 823 822
728 730 731 733 735 737 739 741 744 748 751 753 755 757 759 761 763 765 767 768 770 772 773 775 776 778 779 781 783 785 786 788 790 792 793 795 796 798 799 799 801 803 805 807 810 811 812 813 813 814 814 815 816 817 818 819 819 820 821 822 822 823 823 824 824 824 824 825 825 825 825 825 826 826 826 826 826 825 825 824 824 824 823 823 822
725 728 730 732 734 736 738 740 743 746 749 752 754 756 758 760 762 764 766 768 770 771 773 774 776 778 779 780 782 784 786 787 790 791 793 794 795 797 798 798 800 802 804 806 809 811 812 813 813 814 814 815 816 817 818 818 819 820 820 821 822 822 823 823 824 824 824 824 824 824 824 825 825 825 825 825 825 825 824 824 824 823 823 822 821
722 725 729 732 734 735 737 739 741 744 748 751 753 755 757 759 761 763 765 767 769 771 773 774 775 777 778 780 781 783 785 787 789 791 793 794 795 796 797 798 799 801 804 806 808 810 811 812 813 814 815 815 816 817 818 818 818 819 820 821 821 822 823 823 823 823 823 823 823 824 824 824 824 824 825 825 825 824 824 823 823 822 822 821 820
721 725 729 732 734 735 736 738 740 743 746 749 751 754 756 758 760 762 764 766 769 771 772 773 775 776 778 779 781 782 785 787 788 790 793 794 795 796 796 797 799 801 803 806 808 809 810 811 812 813 815 816 816 817 818 818 818 819 819 820 821 822 822 823 823 823 823 823 823 824 824 824 824 824 824 824 824 823 823 823 822 822 821 820 819
725 728 732 733 734 735 736 738 740 742 745 747 750 752 754 757 759 761 763 765 768 770 772 773 774 776 778 780 782 784 786 787 788 790 792 794 795 796 796 797 799 800 802 804 806 807 809 810 811 813 815 816 816 817 818 818 819 819 820 821 821 821 822 822 822 823 823 823 823 824 824 824 824 824 824 823 823 823 822 822 822 821 820 819 818
730 732 734 735 735 734 736 738 740 742 745 747 749 751 753 755 757 760 762 765 767 770 771 773 774 776 778 780 782 784 786 788 789 790 792 793 795 796 796 797 798 800 802 804 805 805 807 809 810 812 814 815 816 817 818 818 819 820 820 821 821 822 822 822 822 822 823 823 823 823 824 823 823 824 823 823 823 822 822 821 821 820 819 818 817
731 734 736 736 735 733 734 737 740 742 745 747 749 750 752 754 756 758 760 763 766 768 770 772 773 775 778 780 781 783 786 788 789 790 791 792 793 794 796 797 798 800 802 803 804 804 806 808 809 811 813 814 815 816 817 818 819 820 821 821 822 822 821 821 822 822 823 823 824 824 824 823 823 823 823 823 822 822 821 820 820 819 818 817 816
728 732 735 736 734 732 733 736 739 742 744 746 748 750 751 753 754 756 759 761 764 767 769 771 773 775 777 779 780 782 784 786 787 788 789 790 791 792 794 796 798 800 802 804 805 805 806 808 809 811 812 813 815 816 817 817 818 819 820 821 821 821 821 821 821 822 823 824 824 824 824 823 823 823 823 822 822 821 820 820 819 818 817 816 815
726 730 734 734 733 732 734 736 739 742 745 747 749 750 751 752 754 756 758 761 764 766 768 770 772 774 776 778 780 781 783 784 786 788 790 792 792 792 792 794 796 799 801 803 806 807 808 809 810 811 812 813 815 816 817 817 818 819 820 821 821 821 821 821 821 822 823 824 824 824 824 824 824 823 823 822 822 820 820 819 819 818 817 816 815
727 730 733 734 733 733 735 738 740 743 746 748 749 751 752 753 754 755 757 759 762 765 767 769 770 772 774 777 779 782 784 785 787 789 790 792 794 793 792 793 794 796 799 801 804 807 809 810 811 812 813 814 815 816 817 817 818 818 819 820 820 821 821 821 822 823 823 824 824 824 825 824 824 823 823 822 821 820 819 819 818 818 817 815 814
730 731 733 734 734 735 738 740 742 743 745 747 749 750 752 754 755 756 757 758 760 762 764 766 768 770 773 775 777 780 782 784 786 787 789 791 793 794 794 794 795 797 799 801 803 807 809 810 811 812 813 814 816 817 818 818 818 818 818 819 820 821 821 821 822 823 823 824 824 824 825 825 824 824 823 822 821 820 819 819 818 817 816 815 814
732 733 735 735 736 737 739 740 742 743 744 746 747 749 751 753 755 756 758 759 760 761 763 764 766 768 771 774 776 778 780 782 784 787 789 791 792 793 795 796 797 798 800 803 805 808 810 811 811 812 813 815 816 817 818 819 818 818 818 818 819 820 821 821 822 823 823 824 824 824 825 825 824 823 822 822 821 820 819 818 818 817 816 815 814
733 735 736 737 738 738 740 741 742 744 745 746 747 749 751 753 755 756 758 759 761 762 764 765 766 768 770 773 777 779 780 782 784 787 789 791 792 793 794 796 798 799 802 805 807 810 811 812 813 814 815 816 817 818 819 819 819 818 818 818 819 820 821 821 822 823 823 823 823 824 825 824 824 823 822 822 821 820 819 819 818 817 816 815 814
735 736 737 738 739 739 740 742 743 744 746 747 748 750 752 753 755 757 758 759 761 762 764 765 767 769 771 773 775 778 781 783 785 788 789 791 792 793 794 796 799 802 804 806 809 810 812 813 814 815 816 817 818 818 819 819 819 819 818 818 819 820 821 822 822 823 823 823 824 824 824 824 824 823 822 821 821 820 819 819 818 817 816 815 814
737 738 738 739 740 741 741 743 744 745 746 748 749 751 752 754 755 757 758 760 762 763 765 766 768 770 773 774 775 777 780 783 786 788 790 791 792 794 796 798 800 803 805 808 809 810 811 813 815 816 817 817 818 818 818 818 818 818 818 819 819 820 821 822 822 823 823 823 824 824 824 824 824 823 822 821 821 820 819 818 818 817 816 814 814
739 739 740 741 741 742 743 743 745 746 748 749 750 752 753 755 756 757 758 760 762 765 767 769 770 772 774 776 777 778 781 784 787 789 790 792 793 795 796 799 801 804 806 807 808 809 810 812 814 816 816 816 817 817 816 816 816 817 818 819 820 820 821 821 822 822 823 823 824 824 824 824 823 823 822 821 821 820 819 819 818 817 815 814 813
740 741 741 742 742 743 744 745 746 747 749 750 752 753 755 756 757 757 758 759 762 765 767 770 772 774 775 777 779 780 783 785 788 789 791 792 794 795 797 799 801 804 805 806 807 809 810 812 813 814 815 815 815 814 814 815 815 816 818 819 820 820 821 821 822 822 823 823 824 824 824 824 823 823 822 822 821 820 819 819 818 816 815 814 813
742 742 742 743 744 744 745 746 747 748 750 751 752 754 756 757 758 759 760 761 762 765 768 770 773 776 778 779 781 782 784 786 789 791 792 793 795 796 798 799 801 803 804 806 808 809 811 812 812 813 813 812 813 813 814 815 815 817 818 819 820 820 821 821 822 822 822 823 823 824 824 824 823 823 823 822 821 821 819 818 818 816 815 814 813
743 744 744 745 745 746 747 748 749 749 751 752 753 755 756 758 759 760 761 763 764 766 769 771 774 776 779 781 783 784 786 788 791 792 794 795 796 797 798 799 801 803 805 807 809 810 811 811 811 811 811 811 813 814 814 815 816 818 819 819 820 821 821 821 822 822 822 823 824 824 824 824 824 823 823 822 821 820 819 818 817 816 815 815 814
744 744 745 746 746 747 748 749 750 751 752 753 754 756 757 758 760 761 762 764 766 768 770 773 775 777 779 781 784 786 788 790 792 794 795 796 797 798 799 800 802 804 806 807 809 810 810 810 809 810 810 812 813 814 815 816 817 818 819 819 820 821 821 821 822 822 823 824 824 825 825 824 824 824 823 822 821 820 819 818 817 817 816 815 814
744 745 746 746 747 748 749 750 751 752 753 754 755 757 757 759 761 762 764 766 768 769 772 774 776 778 780 782 784 786 788 790 792 794 795 797 798 800 801 802 803 805 806 807 808 809 809 808 809 810 811 812 813 814 815 816 817 818 819 820 820 821 822 822 823 823 824 824 825 825 825 825 825 824 823 822 821 820 819 819 818 817 816 815 814
745 746 747 748 748 749 750 751 753 753 754 755 756 758 759 760 762 763 765 768 770 772 774 775 777 779 781 783 785 787 789 791 793 795 796 798 799 801 802 803 804 805 806 807 808 808 808 808 809 810 811 812 813 815 816 816 818 819 820 820 821 821 822 823 824 824 825 825 825 826 825 825 825 824 823 822 821 821 820 819 818 817 817 816 815
747 748 748 749 750 751 752 753 754 755 756 757 758 759 760 762 763 765 767 769 772 774 776 777 779 781 783 785 788 790 791 793 795 797 798 799 800 800 801 803 804 805 806 807 807 807 807 808 810 811 812 813 815 816 817 818 819 819 820 821 822 822 823 824 824 825 826 826 826 826 825 825 825 824 823 822 822 821 820 820 819 818 817 816 815
748 749 750 750 751 752 753 754 756 756 758 759 760 761 763 764 766 767 769 770 773 775 777 780 781 783 786 789 791 793 794 796 797 799 799 800 800 801 803 805 806 807 807 807 807 807 808 809 811 812 814 815 816 817 818 819 820 821 821 822 823 824 824 825 826 826 826 826 826 826 826 825 825 824 823 823 822 821 821 820 819 818 817 816 815
750 751 752 753 753 754 755 756 757 759 760 761 762 764 765 766 768 770 771 773 774 776 778 781 784 786 789 791 793 794 796 798 799 800 800 800 802 803 805 807 807 807 807 808 808 809 809 811 812 814 816 817 818 819 820 821 822 822 823 824 824 825 825 826 827 827 827 827 827 827 826 826 825 824 824 823 822 822 821 820 819 819 818 817 816
752 753 754 755 756 757 758 759 760 761 762 763 765 766 768 769 770 772 774 775 777 779 781 783 786 788 790 793 794 796 797 799 800 801 802 803 804 806 807 808 808 808 808 809 810 811 812 813 814 816 817 819 820 821 821 822 823 824 824 825 825 826 827 827 827 828 828 828 827 827 826 826 825 825 824 823 823 822 821 821 820 819 819 818 817
755 756 757 758 759 760 761 762 763 764 765 766 767 769 770 771 772 774 776 778 780 782 784 786 788 791 793 794 795 797 798 800 802 803 805 806 806 807 808 809 809 809 810 811 813 814 814 815 816 818 819 820 821 822 823 824 824 825 825 826 826 827 827 828 828 829 829 828 828 827 827 826 826 825 824 824 823 823 822 822 821 820 819 819 818
757 758 759 760 761 762 763 764 765 766 767 768 769 771 772 773 774 776 778 780 782 784 786 788 791 793 794 796 797 798 800 802 804 806 807 807 808 809 810 810 811 811 812 813 814 815 816 817 818 819 820 822 823 823 824 825 826 826 827 827 828 828 829 829 829 829 829 828 828 828 827 827 826 826 825 825 824 824 823 823 822 821 821 820 820
760 760 761 762 763 764 765 766 767 768 769 770 771 772 774 775 777 779 781 782 784 787 789 790 793 795 797 798 799 801 803 805 806 808 809 810 810 811 812 812 813 813 814 815 816 817 818 819 820 821 822 823 824 825 826 826 827 827 828 828 829 830 830 830 830 830 829 829 828 828 828 827 827 827 826 826 825 825 824 824 823 823 822 822 821
762 763 764 764 765 766 767 768 769 770 771 772 773 775 776 777 779 781 783 785 787 789 791 793 796 798 799 801 802 804 805 807 808 809 811 812 813 814 814 814 815 815 816 817 818 819 820 821 822 823 824 825 826 826 827 828 828 829 829 830 831 831 831 831 831 830 830 829 829 829 828 828 828 827 827 827 826 826 825 825 825 824 823 823 822
763 765 766 767 767 768 769 770 771 772 773 774 776 777 779 780 782 784 786 788 790 792 794 796 798 800 801 803 804 806 807 808 810 811 812 813 814 815 815 816 816 817 817 818 819 820 821 823 824 824 825 827 827 828 829 829 830 830 831 831 832 833 832 832 831 831 831 830 830 829 829 829 829 828 828 828 828 827 827 826 826 825 824 823 822
765 766 768 769 770 771 772 773 773 774 775 777 778 779 781 783 785 787 789 791 793 795 796 798 800 801 803 804 806 807 808 810 811 812 813 814 815 816 816 817 818 818 819 820 821 822 823 824 825 826 827 828 829 830 830 830 831 832 832 833 833 833 833 832 832 832 831 831 831 831 830 830 830 829 829 829 829 828 828 827 826 826 825 824 823
767 768 769 770 771 773 774 775 775 776 777 778 780 781 783 785 787 789 791 793 795 797 798 800 801 803 804 806 807 808 809 811 812 813 814 815 816 817 817 818 819 820 821 821 822 824 825 826 827 828 829 830 830 831 831 832 832 833 833 834 834 834 833 833 833 833 832 832 832 832 831 831 830 830 830 830 829 829 828 828 827 826 826 825 824
Wind_Speed
27 28 28 28 29 28 29 28 27 27 27 27 27 27 30 31 31 31 31 32 34 35 36 35 32 31 31 30 30 30 29 28 27 25 22 19 17 16 16 15 14 14 13 12 12 12 11 11 9 7 8 10 9 8 7 6 5 6 6 5 6 7 8 10 9 8 9 11 11 10 7 5 7 8 5 6 11 12 8 4 1 2 6 11 13
27 28 28 28 28 28 28 27 27 26 26 27 27 27 30 31 31 31 31 32 34 36 36 33 31 30 28 27 28 27 25 26 25 23 22 20 18 18 17 16 16 16 15 14 14 13 13 12 11 9 10 11 11 8 8 7 6 7 7 5 6 8 8 9 10 8 9 10 10 9 6 4 7 8 5 4 7 10 10 8 4 2 5 8 10
27 28 27 27 28 27 27 27 26 26 26 27 27 28 30 30 31 31 30 31 33 34 33 31 32 31 27 27 29 27 25 23 21 20 20 20 20 19 19 18 17 16 16 16 15 15 14 13 11 11 11 12 11 9 8 9 7 7 6 5 7 9 8 8 9 9 9 9 9 8 7 6 6 7 5 2 3 6 7 8 7 6 6 7 7
27 27 27 27 27 27 27 27 26 26 27 28 27 28 29 29 29 29 30 31 31 31 28 25 28 27 23 26 27 26 26 23 21 20 20 19 21 20 19 18 17 16 15 16 16 15 15 13 11 10 10 11 11 9 9 9 8 8 8 8 9 9 7 8 8 7 8 9 9 8 8 8 7 7 5 1 1 3 5 6 6 8 10 9 6
27 28 28 28 28 27 27 27 28 28 28 28 27 27 26 26 27 28 29 29 28 28 24 20 24 26 24 27 29 28 28 27 25 23 20 20 21 20 19 19 18 17 16 16 16 16 14 13 12 11 10 10 10 10 10 10 9 9 9 9 8 7 7 7 5 4 8 11 11 9 8 7 7 7 7 3 1 2 3 4 5 7 11 12 6
27 28 28 28 28 28 28 28 28 29 28 27 26 26 26 26 27 27 27 27 25 25 24 21 25 28 28 30 32 31 30 28 25 22 21 22 21 19 20 21 19 18 17 15 15 15 13 12 12 11 10 10 10 11 11 11 10 9 9 10 7 6 8 7 4 5 10 13 11 9 8 7 7 9 9 4 3 5 5 3 5 7 12 13 7
28 28 29 28 28 28 28 29 29 29 28 26 25 26 26 26 26 25 25 24 23 23 24 21 22 24 25 27 30 31 30 27 23 21 22 23 21 21 22 21 19 18 17 16 15 14 12 12 11 10 9 9 10 12 11 11 11 10 10 10 7 8 10 8 6 9 12 13 10 9 8 7 7 10 9 3 4 7 8 8 7 9 13 11 8
28 28 28 28 28 28 28 29 29 28 27 26 25 26 26 26 25 25 24 24 24 24 24 22 21 21 22 24 27 29 29 25 21 21 22 22 22 23 23 21 20 19 18 17 15 13 12 10 10 9 9 9 11 12 12 11 11 10 10 9 7 8 10 8 9 12 13 12 11 9 8 7 7 9 8 5 5 7 9 11 10 12 13 8 6
28 28 28 27 28 28 28 28 28 27 26 26 26 26 26 25 24 25 24 24 25 24 21 22 24 23 22 24 25 26 25 22 19 20 24 24 23 23 23 22 22 21 19 17 14 11 10 8 8 8 9 11 12 12 12 11 10 10 10 10 8 9 9 9 11 14 13 12 10 9 7 7 7 9 8 8 7 7 9 10 11 12 11 6 6
28 28 27 26 27 29 28 27 27 26 27 27 26 26 26 24 24 24 23 23 25 23 20 21 24 24 23 24 24 23 21 19 18 21 25 25 24 25 24 24 23 21 19 16 12 9 7 6 7 7 9 11 13 13 13 11 9 9 10 10 8 9 11 12 13 13 11 11 10 7 7 7 6 7 7 7 7 7 8 11 12 12 9 6 6
28 28 27 26 27 29 29 27 27 27 27 27 26 26 25 24 23 23 23 23 23 23 21 19 20 23 25 25 25 24 21 21 22 25 26 25 25 26 25 24 23 21 18 16 12 10 8 9 9 9 10 11 12 12 12 10 9 10 11 10 8 9 10 12 13 11 10 10 8 7 6 6 5 5 5 5 7 8 9 10 11 10 7 5 4
26 26 26 26 26 28 28 27 27 27 27 27 27 26 25 24 23 22 23 23 22 22 22 20 19 22 25 27 28 27 24 24 26 28 28 26 26 26 25 24 23 20 18 15 13 12 13 14 14 13 12 12 12 12 11 11 11 11 11 10 9 8 8 9 10 9 8 9 9 8 7 6 5 5 6 6 6 7 8 9 10 8 4 3 3
25 24 25 25 25 26 26 26 26 26 26 27 26 26 25 24 23 23 23 23 23 23 23 22 21 23 26 27 28 27 25 24 27 29 28 27 26 25 24 23 22 20 17 15 14 14 16 17 16 16 15 13 13 13 13 13 13 12 11 10 9 8 8 8 8 7 8 11 13 11 8 7 6 7 7 7 6 7 7 8 9 6 3 2 4
24 24 25 25 24 24 25 26 25 24 24 26 26 25 25 24 23 23 23 23 24 24 24 24 23 24 25 26 26 26 25 25 27 28 27 27 26 25 23 22 21 20 17 16 15 16 16 17 17 17 15 13 12 14 15 15 15 13 11 10 9 9 8 7 7 8 11 13 14 13 11 10 9 8 8 7 6 7 6 7 8 6 1 0 4
22 24 24 24 24 24 25 25 24 23 23 24 25 25 25 24 23 22 23 23 23 22 23 24 25 26 26 26 27 26 25 26 26 26 27 28 26 24 23 22 22 20 18 17 16 16 16 16 16 16 14 11 10 10 12 14 16 16 15 12 11 10 8 8 10 12 14 13 13 13 13 12 12 11 10 9 9 9 8 9 11 9 6 4 5
22 23 24 25 25 26 26 25 23 22 23 23 24 24 23 23 23 22 22 22 22 22 23 24 26 27 27 28 28 26 25 25 25 26 27 28 26 24 23 23 22 20 19 18 17 17 17 16 15 14 13 11 10 9 9 10 11 14 16 15 14 13 13 13 13 13 12 11 10 10 11 11 12 12 11 11 11 10 10 11 13 13 13 12 11
24 24 25 26 27 27 27 25 23 22 22 22 23 23 22 22 23 23 22 22 23 23 24 25 26 28 28 28 28 27 26 26 25 25 27 27 27 25 24 22 22 21 20 20 20 19 17 16 14 13 12 11 11 10 9 9 9 11 13 14 14 14 14 13 11 9 8 8 7 7 7 8 9 10 10 9 9 9 9 11 12 12 13 13 11
24 26 26 27 28 28 27 25 24 23 23 22 22 22 22 23 23 23 23 23 24 25 25 24 25 27 28 28 28 27 27 27 26 25 26 27 28 26 24 22 21 22 22 22 22 20 17 15 13 12 12 12 11 10 9 8 9 10 11 12 11 11 10 9 8 5 4 3 2 2 3 3 5 6 7 6 6 7 8 9 9 9 9 8 9
25 26 27 29 28 28 27 26 26 25 23 22 22 22 22 22 22 22 22 23 23 24 25 24 24 25 26 27 28 28 27 28 27 26 26 28 28 26 24 22 20 22 24 24 23 21 18 16 14 12 12 12 11 10 9 7 9 11 11 11 10 9 8 7 5 4 2 2 2 2 2 2 3 3 3 3 3 4 6 6 8 9 8 7 8
29 28 29 30 29 28 28 27 27 26 24 22 21 21 21 21 21 21 22 22 22 22 23 24 25 26 26 27 28 28 28 28 28 26 27 28 27 25 24 24 23 23 25 25 24 22 19 18 16 13 12 12 11 11 9 7 9 11 12 11 9 8 7 6 3 2 2 3 3 3 3 3 4 4 2 1 2 3 4 6 7 9 10 10 9
31 31 30 29 29 29 29 28 27 26 25 23 22 21 20 19 20 21 22 23 23 22 23 23 25 27 28 28 29 29 29 30 29 28 29 29 26 24 24 25 25 25 25 25 24 23 21 20 17 13 11 11 11 11 10 8 8 10 11 12 10 7 6 4 2 2 2 1 3 5 5 4 2 3 3 1 2 2 3 6 8 9 11 12 12
29 30 29 29 29 29 29 29 28 27 26 24 23 22 20 19 20 22 23 23 24 23 23 22 24 26 27 28 28 28 29 30 30 29 29 27 24 22 23 25 26 25 26 25 24 23 21 18 15 13 10 9 9 11 10 8 8 8 11 13 11 7 6 4 2 2 5 7 6 5 4 3 2 1 1 1 1 3 4 5 8 9 10 11 12
23 26 27 28 29 29 28 28 27 26 26 25 23 22 20 19 20 21 23 23 23 23 22 22 23 23 22 22 21 21 23 27 28 28 26 23 20 19 20 24 25 25 24 24 23 21 19 16 14 13 10 8 8 9 10 9 8 9 11 12 10 7 6 4 2 6 9 8 6 5 4 3 2 2 1 0 1 3 4 5 6 7 9 11 11
14 21 25 26 28 28 27 26 25 25 26 25 24 24 23 21 20 21 22 23 23 23 22 22 22 21 20 18 17 17 19 22 24 25 24 21 18 15 16 20 24 24 22 21 19 18 17 16 14 12 10 8 6 7 9 9 9 10 11 9 7 6 5 4 4 7 8 7 5 5 3 1 1 1 1 0 2 4 5 5 5 6 9 12 11
13 18 22 24 26 27 26 25 24 24 25 25 25 24 24 23 23 24 24 24 24 23 22 22 22 21 20 19 18 18 20 22 23 24 24 23 20 17 14 15 18 20 20 18 16 16 15 15 13 12 10 8 6 7 9 9 10 11 10 8 5 4 4 5 4 5 6 6 6 4 2 3 5 5 3 3 4 5 6 7 8 10 12 11 8
18 17 18 20 23 24 24 23 22 22 23 24 24 25 25 25 25 25 25 25 24 23 23 22 21 19 20 19 19 20 21 24 25 24 22 22 22 19 16 12 12 16 19 17 15 15 16 15 13 12 10 7 7 8 11 12 12 11 9 7 6 6 5 5 5 5 5 5 4 2 1 1 3 4 3 2 4 5 6 7 9 10 9 7 7
18 17 16 18 19 20 21 20 18 17 18 18 19 20 22 24 25 25 25 23 21 21 22 22 20 20 20 20 20 21 22 22 21 18 17 18 19 19 18 14 13 17 19 16 15 17 18 15 13 11 9 7 8 11 13 13 12 10 8 6 6 8 8 7 6 6 6 6 5 5 6 5 4 4 3 3 5 5 5 6 8 9 9 9 10
16 17 16 17 17 18 18 18 16 15 13 12 12 12 15 19 22 24 26 26 24 23 24 24 23 23 23 23 22 20 19 18 18 18 18 18 17 17 18 17 18 20 20 17 17 19 19 15 12 10 8 8 9 12 13 13 10 8 8 6 5 6 7 6 5 5 4 3 3 3 4 4 4 5 4 4 6 7 7 7 8 8 10 12 14
15 15 15 16 16 17 17 17 17 17 15 13 12 10 11 14 17 20 24 26 27 27 27 28 28 26 26 27 26 22 20 20 21 20 20 19 18 17 18 18 19 19 19 19 21 22 19 15 12 11 10 9 10 12 13 11 9 7 6 4 3 5 6 5 3 2 2 2 1 1 2 2 3 3 4 5 6 8 8 8 7 8 11 14 15
14 13 13 14 15 16 17 16 16 17 17 16 14 12 11 12 15 18 20 21 24 27 27 28 29 28 28 28 25 21 21 23 22 20 19 19 17 16 16 16 16 17 19 20 21 20 16 13 12 11 10 9 10 13 13 10 8 6 4 2 3 6 6 5 4 3 3 2 1 1 2 2 3 3 4 5 6 8 8 8 8 9 12 14 15
14 12 11 12 12 13 13 12 13 14 14 14 13 12 10 9 11 14 17 18 20 23 24 25 27 27 27 26 22 18 19 22 22 20 19 19 18 18 18 18 18 20 21 20 18 15 12 11 10 9 8 8 10 12 12 9 7 5 2 2 5 8 8 6 5 5 4 3 1 0 1 2 3 4 5 5 5 7 7 7 7 10 12 14 15
12 11 10 9 9 9 10 10 11 12 13 13 12 12 12 11 9 9 11 13 16 19 22 23 24 25 25 24 22 20 21 24 24 22 22 23 22 22 23 22 21 20 18 16 14 13 11 9 8 7 8 8 11 12 11 10 9 6 4 5 9 11 10 7 5 5 4 3 2 1 2 3 3 4 5 4 5 7 7 6 7 9 12 13 12
8 8 7 7 7 7 8 9 10 11 12 13 13 13 14 14 14 14 13 13 14 17 20 22 24 25 23 19 18 20 25 27 26 24 24 24 23 23 23 21 19 17 14 13 12 12 12 11 10 9 9 10 11 11 11 11 11 8 6 9 13 12 9 7 6 5 4 3 1 1 2 2 3 5 6 6 7 7 6 5 7 10 11 12 11
5 4 4 5 6 7 8 9 10 11 12 13 14 14 14 16 19 21 21 20 19 19 21 22 23 22 20 17 18 23 27 28 26 25 23 21 21 22 21 18 15 13 11 11 11 13 13 12 12 12 12 11 12 12 11 11 10 9 9 13 14 11 9 8 6 4 3 3 1 2 3 3 4 6 7 7 7 7 6 7 9 11 12 12 13
3 3 3 4 6 7 8 9 10 11 12 13 14 14 15 17 20 23 24 25 24 23 22 22 21 20 19 20 22 25 27 27 25 23 21 18 19 19 19 18 16 13 11 11 12 13 13 12 12 12 13 13 13 12 10 10 10 11 13 15 13 11 9 7 5 3 4 3 1 3 3 3 4 5 6 6 7 8 8 10 11 12 13 13 13
3 4 4 4 5 7 8 9 10 11 13 13 13 14 16 19 20 21 23 25 26 25 23 22 22 20 19 21 23 25 25 24 23 21 18 16 15 16 17 18 16 13 12 14 14 13 13 12 11 11 11 11 11 10 10 10 12 14 15 14 11 10 9 7 5 4 4 3 3 4 5 5 6 6 6 6 8 8 9 10 11 12 13 13 12
3 4 4 4 5 6 8 8 9 10 11 13 14 16 18 19 21 22 24 24 25 25 24 24 24 23 22 23 23 23 22 21 20 18 16 15 14 15 17 17 16 14 14 14 14 13 12 11 10 8 8 11 12 13 13 13 14 15 14 12 11 10 9 7 6 6 6 6 7 7 7 6 7 7 7 7 8 10 11 11 12 12 12 13 13
4 3 4 4 5 6 7 8 9 10 11 13 16 18 20 21 22 24 25 25 25 25 24 24 24 25 24 23 21 21 20 20 19 18 17 16 15 15 15 16 14 13 12 11 10 11 12 11 9 9 13 16 16 16 16 16 16 16 14 12 11 10 9 8 8 8 8 8 8 7 7 7 8 8 8 8 9 11 12 12 12 12 13 13 14
4 4 4 4 5 6 7 8 10 11 13 15 17 19 21 22 23 24 24 24 24 24 24 24 24 24 24 24 23 23 23 22 21 19 18 17 15 13 12 12 11 10 8 6 7 9 9 8 10 14 18 19 19 18 18 17 17 16 14 13 12 11 10 10 10 10 9 8 8 7 7 7 8 8 8 9 10 11 12 12 12 13 12 13 13
4 5 5 5 6 7 8 10 11 13 14 16 18 20 22 22 23 23 23 23 22 23 23 23 23 23 24 25 26 26 25 23 20 18 17 15 12 8 6 6 5 3 2 3 4 7 12 16 18 19 20 20 19 19 18 17 16 15 14 13 12 12 11 11 9 8 8 7 7 6 7 8 8 8 9 10 10 11 11 11 12 12 13 13 14
5 5 5 5 7 9 10 11 12 13 14 16 18 19 20 21 22 23 24 23 23 21 20 21 23 24 25 25 25 24 22 20 17 15 12 10 6 5 5 6 3 1 3 5 12 20 23 23 22 21 20 20 19 19 18 16 15 14 13 12 12 12 11 10 8 8 7 7 7 7 7 8 8 9 9 10 10 10 11 11 12 13 13 14 15
5 6 6 7 9 10 11 11 12 12 13 15 16 17 19 20 21 23 24 25 25 23 21 21 23 24 25 24 22 20 17 14 12 10 8 7 7 7 6 5 4 4 7 15 22 25 25 23 23 22 20 19 18 17 16 15 14 13 13 12 12 11 10 9 8 7 7 7 7 7 7 8 8 9 9 9 10 11 12 12 13 14 15 15 16
6 7 8 9 10 10 11 12 12 12 13 14 15 16 18 20 20 22 23 23 24 24 25 25 25 25 24 21 18 15 13 11 10 8 8 8 8 7 6 7 9 13 20 24 25 24 24 24 23 22 20 19 18 16 15 15 13 12 12 11 11 10 10 9 9 8 7 7 7 7 8 8 9 9 9 10 11 12 12 13 14 14 16 16 17
9 10 11 11 11 12 12 13 13 13 14 14 15 16 17 19 20 21 21 21 22 24 27 27 26 24 21 17 13 13 13 12 10 9 9 9 10 11 12 15 20 24 26 26 25 24 23 22 22 21 19 18 16 15 14 14 12 11 11 10 10 10 10 9 9 9 8 7 7 8 9 9 9 10 11 12 12 12 13 14 15 15 16 17 18
12 13 13 13 13 13 13 13 14 14 15 15 16 17 17 19 20 21 22 23 24 25 26 25 23 21 18 15 15 15 14 12 11 11 12 15 17 20 22 24 26 27 27 25 24 22 21 20 19 18 17 16 15 14 14 13 12 11 11 10 9 9 10 10 9 9 8 7 8 9 9 9 10 11 11 12 12 12 13 14 15 16 16 17 18
13 14 15 15 15 16 16 16 16 16 16 17 18 18 18 19 20 22 24 26 27 27 25 23 22 20 17 16 16 16 14 13 14 16 19 22 24 25 26 27 27 26 26 24 22 20 18 18 17 16 17 17 16 15 14 13 12 11 11 10 10 10 10 9 8 7 7 8 9 9 8 9 10 11 11 12 12 12 13 14 15 15 16 16 16
14 15 15 16 17 18 18 18 17 18 19 19 19 19 20 21 22 24 26 27 27 27 25 23 22 19 16 16 17 17 15 16 18 21 23 25 26 26 27 27 26 25 23 21 20 18 18 17 17 17 17 16 15 14 13 13 12 12 11 11 11 10 9 8 7 8 9 9 9 9 9 9 11 11 12 12 12 12 13 14 14 14 15 15 16
15 16 16 17 19 20 20 19 19 20 22 21 21 21 22 23 25 27 27 27 27 26 24 21 19 16 14 16 18 18 17 18 21 23 25 26 26 26 25 24 23 22 21 21 20 19 19 18 17 17 16 15 14 13 13 12 12 12 12 11 11 10 8 7 7 8 9 9 9 10 10 10 11 11 11 12 12 13 13 13 13 14 14 15 16
16 17 17 19 21 21 20 20 21 23 24 23 22 23 24 25 27 27 27 25 25 24 22 20 18 15 14 17 19 19 18 20 24 26 27 27 26 25 24 22 22 21 21 21 21 20 19 18 17 16 15 14 14 13 13 13 12 12 12 11 10 9 7 7 8 9 10 10 11 11 10 9 10 10 11 12 12 13 14 14 13 13 14 15 16
17 18 19 21 21 21 20 21 24 25 24 23 23 24 25 25 25 25 25 24 23 21 19 18 18 17 18 20 23 24 24 26 28 28 28 27 25 24 23 23 22 22 22 21 21 19 18 17 16 15 15 14 14 14 13 13 12 12 12 11 9 8 8 8 9 10 10 10 10 10 9 9 10 10 11 12 12 13 14 14 13 13 14 15 15
19 20 20 21 22 22 22 23 24 25 24 23 23 23 25 25 25 24 23 22 22 20 20 20 21 22 24 25 27 28 28 29 28 28 27 26 25 24 23 23 22 22 21 21 20 19 18 17 16 16 15 15 14 14 13 13 12 11 10 9 8 8 8 9 9 9 9 10 10 10 10 10 10 10 10 12 13 13 14 14 13 13 14 14 14
Wind_Direction
195 194 193 194 195 196 198 199 199 201 205 209 211 210 209 209 208 209 212 215 213 210 207 204 201 197 193 191 187 184 183 182 182 181 180 179 179 178 176 175 174 170 167 168 171 169 162 156 156 157 157 157 153 148 149 149 139 137 134 123 128 148 149 129 119 127 125 116 115 108 86 61 55 41 29 41 50 62 72 70 86 24 15 17 14
193 193 192 192 195 196 197 197 198 200 204 208 210 209 208 207 208 210 213 216 214 210 206 201 197 192 188 184 182 182 184 182 179 178 178 177 176 176 177 176 172 169 169 170 171 170 166 157 147 143 148 155 156 152 155 160 154 146 142 132 140 154 154 133 121 125 127 118 116 109 85 63 59 51 46 52 53 61 68 64 54 17 354 355 1
192 192 190 191 193 195 196 196 196 199 203 206 208 207 206 206 209 212 215 217 214 209 204 198 194 193 187 182 185 189 187 181 180 183 182 179 178 177 177 177 175 174 174 176 175 171 167 160 151 150 152 153 153 149 150 156 157 148 141 137 146 150 149 136 121 117 122 118 113 107 89 71 62 49 45 68 65 62 67 62 49 34 10 345 337
187 186 187 189 191 193 195 194 195 199 203 204 203 204 205 206 210 214 217 217 212 208 206 198 193 191 181 177 186 192 189 185 187 189 187 183 180 178 178 180 180 180 178 178 177 174 170 164 159 161 163 159 155 154 154 158 159 151 138 129 132 138 139 133 121 114 123 121 112 108 93 73 58 38 24 37 85 64 68 62 48 35 21 5 337
182 182 184 186 188 190 191 191 194 200 202 201 199 201 205 208 211 214 216 215 210 206 207 197 191 191 183 180 186 189 189 187 185 184 184 182 179 177 179 181 180 178 177 175 174 174 172 167 162 164 168 166 163 166 165 163 163 159 157 153 144 141 146 141 127 129 140 132 118 111 95 68 48 26 17 16 51 56 67 64 47 28 16 14 7
179 179 182 185 186 187 187 189 195 201 202 200 200 203 206 208 209 211 213 213 207 206 208 198 190 192 188 183 184 184 185 183 179 176 174 174 175 176 178 179 179 179 179 176 175 175 173 169 166 168 173 174 176 179 177 174 170 160 161 169 171 168 165 160 155 153 145 134 124 115 91 57 34 22 19 26 50 43 45 54 51 28 14 13 13
176 178 182 185 184 186 188 190 195 201 202 202 203 203 203 205 206 209 213 211 205 207 209 197 184 186 184 180 181 182 179 174 170 167 168 173 175 174 175 176 176 177 177 175 175 176 174 171 170 173 178 183 186 186 185 184 181 170 161 164 172 180 180 176 163 151 142 131 120 109 85 58 39 25 26 71 99 50 29 18 18 15 13 15 11
175 178 181 183 185 187 189 191 196 200 200 201 202 201 201 204 206 210 211 205 201 204 205 197 189 189 186 179 179 180 174 168 165 166 174 180 176 173 175 175 171 169 169 171 172 173 173 174 178 184 189 193 195 193 191 189 185 178 169 165 165 170 174 176 162 149 141 129 117 105 83 60 41 27 38 91 94 42 19 11 7 3 7 20 31
174 177 180 183 185 187 189 189 192 194 194 197 200 200 201 203 204 206 204 200 201 202 199 196 194 192 187 180 179 179 172 167 168 174 180 182 178 175 175 172 168 166 164 164 167 170 176 182 190 199 203 203 201 194 190 188 186 180 175 171 168 162 160 160 155 145 135 123 113 104 81 57 36 23 37 63 53 26 16 17 15 9 11 46 64
174 176 179 182 184 185 187 188 188 189 191 194 197 198 198 198 200 202 200 201 205 203 194 190 190 190 188 186 186 185 178 172 176 183 185 184 180 176 172 169 169 169 166 164 162 164 173 181 179 181 188 192 193 191 188 186 185 182 177 173 171 166 157 149 145 140 131 118 107 96 78 60 38 21 33 51 46 33 27 26 22 16 25 66 61
173 175 177 181 182 180 181 184 185 187 189 190 192 194 194 194 196 198 198 200 203 202 196 192 192 193 194 193 191 191 186 179 181 186 188 188 183 177 172 170 171 172 171 169 163 155 150 146 143 145 154 165 172 179 184 184 178 173 171 171 170 170 165 155 146 139 130 118 106 90 77 65 44 32 45 57 51 40 33 33 27 20 39 73 40
173 174 177 180 178 175 176 179 182 186 186 184 187 192 192 191 192 194 196 197 199 198 196 194 194 195 195 194 192 191 186 182 184 188 190 190 187 181 176 174 172 172 174 171 163 155 145 134 127 128 134 140 146 153 157 158 158 158 160 162 163 164 167 163 153 144 135 126 115 100 84 73 64 62 66 62 49 34 31 38 36 32 64 98 32
172 171 176 178 176 173 174 176 180 183 182 181 185 190 191 191 191 193 194 194 194 194 193 193 193 193 193 192 191 190 187 185 186 188 189 190 189 185 180 178 175 174 175 173 167 162 154 142 133 129 127 125 123 125 129 136 144 150 154 156 157 156 153 150 145 137 130 123 114 103 90 82 82 79 73 63 47 34 32 37 38 42 86 85 12
168 168 172 175 174 173 174 177 181 182 180 181 183 186 188 189 188 189 191 191 193 193 194 196 197 197 198 196 194 193 191 188 188 189 190 191 191 188 184 182 180 178 179 178 174 171 167 159 149 142 136 130 121 114 113 118 123 129 136 142 148 149 143 139 135 127 122 114 104 96 90 88 91 88 80 74 60 48 44 41 35 35 91 67 347
164 165 168 170 171 173 175 180 184 183 180 181 182 183 185 185 184 185 188 191 195 199 199 199 199 199 200 199 196 195 194 190 190 193 193 190 191 191 188 184 182 181 182 183 180 176 174 170 163 154 147 145 141 128 118 115 113 112 115 123 134 142 139 130 124 119 115 107 98 93 89 87 88 86 80 79 74 67 68 62 48 41 58 69 34
162 163 163 166 170 174 178 181 183 182 180 180 181 179 179 181 183 185 188 191 196 201 201 200 199 198 198 197 195 195 195 193 192 194 192 190 191 193 191 187 185 183 184 186 184 177 174 173 169 161 154 152 152 150 142 135 126 117 113 115 120 126 127 123 120 117 112 107 103 100 92 84 82 80 76 75 74 71 69 61 49 40 42 45 35
162 163 164 167 172 176 180 182 181 181 181 180 180 177 176 178 182 185 188 190 194 199 199 198 199 199 197 196 196 196 195 193 193 193 193 192 191 190 189 188 186 186 187 188 186 180 176 175 172 165 160 157 152 153 155 156 151 140 129 124 123 125 129 129 129 128 123 117 114 112 106 94 84 78 73 67 62 58 48 42 37 30 29 29 16
162 164 166 171 175 178 181 180 178 180 182 181 179 177 175 178 182 186 188 190 193 196 196 196 199 200 200 199 200 200 196 193 193 193 193 193 192 189 188 187 186 187 189 189 187 184 180 180 178 172 167 165 162 164 166 165 168 166 154 145 142 141 143 148 151 153 150 145 140 143 144 128 107 93 80 64 48 37 28 25 22 12 12 17 1
165 167 170 174 178 179 178 177 177 180 182 182 181 178 176 179 184 187 191 192 193 195 196 197 198 200 202 202 202 201 198 195 194 193 192 194 194 192 192 190 185 185 187 186 185 185 184 182 179 176 174 174 175 177 177 180 184 180 172 165 162 159 160 164 171 183 205 245 260 250 238 222 200 161 102 66 33 14 4 359 353 344 343 347 347
169 172 175 177 179 179 177 176 176 178 181 182 183 182 181 182 185 188 193 197 197 197 198 200 200 201 202 203 203 203 200 195 192 191 192 194 195 194 195 193 184 178 179 180 180 180 180 177 175 177 179 180 181 181 181 184 184 183 182 179 168 158 159 162 165 201 262 280 259 225 209 212 218 206 176 70 5 349 353 348 337 329 322 320 322
171 174 176 177 178 179 178 177 178 179 181 182 181 182 185 189 190 191 194 197 199 199 198 199 201 201 201 202 203 203 201 197 192 190 191 194 195 195 195 192 184 175 172 173 175 174 173 172 172 178 184 185 187 187 184 177 172 176 182 181 170 158 162 173 210 260 258 187 162 169 174 176 185 197 200 219 343 330 334 337 333 326 318 313 311
172 173 173 175 177 178 177 178 179 179 179 179 178 177 182 189 193 193 194 196 197 197 196 197 198 198 198 201 201 198 196 195 193 190 190 193 195 195 193 189 184 178 171 169 172 174 173 173 175 179 184 188 190 193 192 184 173 166 169 176 178 176 181 199 230 190 154 135 127 128 129 121 89 94 203 211 312 313 312 325 333 333 328 325 319
169 170 173 175 177 177 177 178 178 179 180 182 181 180 182 187 192 195 195 193 192 192 193 195 195 192 191 195 194 191 190 190 188 186 187 188 188 191 191 187 185 182 177 173 174 175 175 177 179 180 183 188 194 202 208 210 202 181 169 175 184 187 192 201 177 160 158 146 131 125 114 100 99 103 117 172 319 326 325 326 328 330 332 338 340
162 171 178 179 176 175 176 177 179 181 184 185 185 185 185 189 193 197 198 194 190 189 190 191 191 185 182 184 186 188 190 188 185 185 186 184 179 177 180 183 184 184 182 179 180 180 179 182 183 181 181 185 194 211 215 209 198 182 170 172 181 189 196 188 153 159 173 173 166 159 142 119 167 137 110 0 326 341 349 347 338 332 333 341 354
167 177 182 180 174 171 171 176 181 185 188 189 189 189 189 189 191 193 195 194 191 188 187 190 188 179 172 173 178 183 186 187 189 191 192 191 187 177 170 175 181 183 183 182 184 186 184 182 181 180 182 185 192 200 191 175 165 160 154 151 154 168 191 193 173 169 181 186 188 193 219 283 284 280 280 294 311 322 334 345 346 340 336 342 6
166 173 177 175 170 166 166 170 177 184 188 192 194 194 193 192 190 190 191 191 189 185 184 186 183 171 166 170 174 177 181 186 190 191 191 193 191 184 175 168 170 179 183 184 187 186 181 178 178 178 180 184 188 184 173 161 154 150 142 132 121 118 132 155 162 154 145 143 139 118 82 313 295 289 278 302 333 325 319 335 351 356 356 7 30
159 160 162 163 161 159 160 162 167 174 181 187 191 193 193 192 189 188 189 188 183 177 179 182 178 168 165 168 173 176 177 179 182 182 184 189 189 185 180 170 161 168 176 181 187 185 177 173 174 176 178 180 182 178 171 163 157 149 138 123 109 110 114 116 123 128 124 116 103 84 81 85 76 71 78 56 31 19 3 2 14 23 27 24 21
154 152 155 156 155 157 161 163 166 169 172 179 184 187 189 191 191 192 194 193 186 179 179 184 186 180 174 171 168 164 163 169 178 183 188 194 192 185 178 168 160 164 171 178 184 181 173 169 169 174 181 179 174 176 174 169 162 151 139 124 107 115 122 119 116 117 116 123 118 76 65 70 67 62 56 40 36 36 32 29 31 30 23 16 14
149 150 154 153 154 159 163 167 172 173 172 173 173 174 185 195 199 202 202 202 200 196 193 193 194 192 185 176 167 159 160 173 185 189 190 192 188 175 164 159 159 165 173 177 176 171 168 168 173 180 184 178 172 176 178 174 169 159 149 140 128 131 138 143 143 138 136 141 139 17 18 28 29 28 26 25 30 31 27 30 32 24 16 15 14
139 142 148 149 152 157 159 163 169 170 167 165 162 160 173 191 202 207 208 208 209 208 207 204 201 196 186 177 173 175 176 178 179 179 179 180 176 165 158 158 159 161 165 168 166 162 163 173 180 183 181 176 174 179 183 184 180 169 158 174 177 165 166 172 175 181 184 167 118 351 350 358 0 7 13 15 20 25 27 29 27 19 15 14 12
127 129 136 140 145 149 149 151 155 157 159 161 160 155 156 168 190 204 208 209 210 209 209 208 203 196 186 175 172 179 179 171 165 163 162 160 155 149 147 147 145 145 148 152 152 156 167 178 183 188 191 186 181 182 187 195 197 191 189 193 175 169 173 174 171 181 191 181 157 251 334 335 335 348 356 355 3 20 26 22 14 13 14 11 7
124 124 129 135 141 146 150 154 158 160 161 163 164 164 158 150 149 167 187 199 204 207 207 203 194 187 183 175 168 166 165 162 158 154 149 144 139 134 132 132 131 131 134 141 148 158 164 158 158 185 203 194 183 186 197 209 218 223 219 183 166 166 171 167 157 163 173 165 161 239 295 301 318 346 353 347 355 7 12 11 9 10 9 7 8
122 127 135 145 154 162 167 171 173 173 171 169 169 169 167 158 142 131 138 157 173 184 189 188 181 175 174 174 169 163 159 157 155 150 144 139 135 131 128 125 123 124 133 145 148 145 140 138 153 186 202 196 193 205 219 227 233 238 219 183 170 166 165 157 146 143 140 131 109 357 328 312 341 1 359 353 354 357 2 11 12 7 4 5 7
111 124 141 162 173 178 181 183 182 181 180 178 175 172 170 165 152 139 133 134 140 150 158 163 167 167 164 163 164 160 156 155 153 149 143 139 137 136 133 132 134 141 148 149 139 133 142 163 188 207 216 216 221 232 239 236 234 228 200 178 170 162 156 153 153 150 140 133 94 16 355 326 331 344 349 357 9 15 19 16 7 3 4 4 2
142 158 169 179 184 186 187 187 186 183 179 176 174 171 166 161 155 148 143 138 136 137 141 148 156 160 158 157 159 159 158 157 156 155 150 143 140 141 143 147 153 155 151 145 145 152 168 193 213 225 232 237 241 242 234 221 213 201 183 171 166 161 159 159 160 155 146 132 45 10 8 1 4 12 19 29 33 27 18 12 7 5 6 5 3
156 163 167 175 181 183 184 184 183 180 175 172 170 166 159 153 149 146 144 141 138 136 137 143 148 152 154 156 159 162 163 164 165 166 162 153 151 158 163 159 154 150 152 161 175 189 205 223 243 252 248 239 228 212 192 180 179 176 170 163 158 152 150 148 142 133 123 99 64 62 67 60 49 41 34 32 34 27 19 16 16 15 14 11 9
121 139 146 157 165 168 171 173 173 173 172 168 164 158 152 149 148 144 141 140 139 138 139 142 145 146 150 155 160 164 166 167 167 164 159 156 161 169 168 159 154 159 172 185 201 218 232 248 262 256 223 196 180 165 153 148 151 153 150 146 142 138 134 127 117 107 102 96 87 81 75 62 49 38 29 28 32 30 24 19 16 15 15 13 11
87 113 136 150 160 161 160 160 158 159 159 157 155 153 147 145 145 144 142 142 142 141 142 144 146 148 150 155 160 163 161 160 159 156 157 162 166 166 164 163 169 185 198 206 219 238 252 260 247 204 174 160 150 142 137 136 137 140 141 140 137 130 120 111 104 99 100 98 89 78 67 56 46 38 30 27 26 24 21 18 14 11 11 12 13
93 114 138 150 156 156 153 149 147 149 150 150 151 150 148 145 145 144 143 142 142 143 145 147 149 151 152 154 157 158 156 156 157 159 164 171 173 171 171 175 184 197 210 227 250 256 250 223 184 161 149 143 139 137 137 136 136 138 139 136 129 118 110 106 103 99 96 90 81 70 57 47 39 29 20 20 22 20 19 19 20 18 15 14 16
115 124 135 143 142 142 145 146 145 146 147 148 149 149 147 146 145 143 142 142 142 144 147 149 149 151 152 152 153 155 155 156 158 162 167 173 175 169 158 150 150 168 230 255 229 186 161 150 145 142 138 138 139 140 140 140 139 136 132 127 120 112 107 105 102 95 86 75 63 52 41 34 27 22 21 24 26 23 21 23 24 23 22 19 16
129 126 130 135 137 138 140 140 142 143 144 145 147 147 146 145 144 143 143 143 143 144 145 147 148 150 151 152 154 156 156 154 154 158 163 168 165 141 122 123 122 310 277 183 154 142 136 134 134 134 133 131 132 133 134 133 132 128 124 120 117 113 109 105 96 84 72 61 49 40 34 28 24 24 28 33 32 28 27 28 25 23 23 22 19
134 132 135 139 141 141 138 135 136 140 143 144 144 145 145 145 145 146 146 146 146 146 143 142 144 148 150 152 155 157 152 144 144 147 146 137 125 120 132 164 213 227 175 149 138 132 130 129 128 126 124 122 122 122 121 119 119 119 118 116 114 111 105 96 85 74 62 54 46 40 37 35 32 33 35 34 29 26 27 28 26 25 25 25 22
142 142 144 145 144 141 138 138 139 140 141 143 143 144 146 146 145 146 146 146 147 146 142 141 144 148 151 153 156 151 139 127 122 120 118 121 126 135 157 180 178 159 146 137 130 128 129 126 121 118 116 114 113 111 110 111 112 112 112 109 105 101 94 87 80 72 64 59 54 49 44 40 37 37 37 32 28 27 29 31 30 30 31 30 28
150 147 145 143 141 139 139 141 142 141 141 141 140 142 145 145 144 144 143 142 141 140 140 142 146 147 145 143 140 133 123 114 109 109 116 130 142 149 152 149 143 137 132 127 124 124 124 121 117 114 111 109 108 107 107 107 105 103 101 97 93 90 84 78 73 68 62 57 51 45 41 38 36 35 35 33 31 33 36 38 37 36 35 34 33
152 148 145 142 140 139 138 139 138 137 135 133 131 133 137 140 141 142 141 139 137 137 138 141 143 141 132 121 117 117 116 113 116 125 134 140 142 140 138 134 130 127 124 121 120 119 117 115 115 114 112 111 110 107 104 102 99 96 93 89 85 83 77 71 67 62 53 44 39 36 35 35 34 35 37 39 41 44 47 46 44 40 37 35 35
152 150 147 144 141 137 134 133 133 132 131 129 127 128 132 136 138 139 138 137 136 136 135 135 135 130 119 110 110 113 116 121 130 136 138 138 137 134 131 129 126 123 121 119 118 117 115 115 116 115 114 112 109 104 101 100 97 94 91 87 84 81 77 72 67 58 46 40 38 37 38 41 44 46 49 50 51 53 52 49 44 41 39 37 35
152 151 149 146 141 137 134 133 132 130 128 127 127 128 131 133 134 135 135 135 135 135 134 133 133 127 117 114 120 124 128 136 142 141 139 136 133 131 129 127 125 123 121 120 120 119 118 116 115 112 110 108 105 102 101 99 95 93 92 88 84 81 78 72 61 50 43 40 38 40 45 52 56 58 57 54 52 51 49 46 44 42 41 39 37
154 152 149 146 142 139 137 136 134 131 129 127 126 127 129 132 133 134 135 135 136 136 137 137 137 133 125 126 132 137 142 146 145 142 138 135 133 131 130 128 126 126 126 124 122 120 117 115 112 110 108 107 106 105 104 102 99 97 93 88 84 81 75 66 55 48 44 42 44 47 52 57 60 60 56 52 50 47 45 45 45 43 42 42 42
156 152 149 147 146 144 142 140 138 136 134 131 127 126 127 130 132 134 134 135 138 141 143 145 145 143 140 141 144 149 152 151 146 142 139 138 137 136 135 133 132 131 129 125 122 119 116 114 113 111 110 109 109 108 107 105 101 97 92 88 86 82 72 63 58 55 53 51 51 50 51 53 57 59 55 52 50 47 45 46 46 44 44 44 43
160 157 154 151 150 149 147 143 141 140 139 136 133 130 130 132 134 137 138 140 143 147 150 152 153 153 154 154 155 155 154 150 147 144 142 141 140 139 138 136 134 132 128 124 121 119 117 116 114 113 113 113 112 110 107 102 97 94 92 91 89 81 70 65 62 59 56 54 51 50 51 56 61 60 55 50 46 46 47 48 47 46 46 45 42
164 162 160 157 155 153 149 145 143 143 143 140 138 138 138 138 140 143 146 148 151 153 155 155 154 153 153 154 154 152 151 149 147 145 144 143 142 141 139 136 133 130 127 124 122 120 118 118 118 117 116 114 110 106 102 98 96 96 97 94 87 76 65 59 55 51 49 49 49 51 55 59 62 60 56 50 47 47 48 47 46 46 45 43 41